Погода в Пинске

Погода в Пинске : погода сейчас, прогноз погоды и архив. Всё, что Вы хотите узнать о погоде в Пинске!

Хотите узнать прогноз погоды в Пинске? Тогда Вам сюда: Погода в Пинске

Поиск расширенной информации на нашем сайте:

Другие новости

Новости СМИ2

Главная страница сайта

Новости сайта

02.10.2013

Напоминаем, что на нашем новом сайте вы можете получить высокодетализированные прогнозы погоды по пунктам России, СНГ и мира (включающие важные для авиации метеовеличины, такие как направление и скорость ветра, видимость, явления погоды, количество и форма облачности, нижняя и верхняя граница облачности), а также ознакомиться с разнообразными материалами по авиационной метеорологии и подборкой полезных ссылок на эту тему.

Сайт Метеоцентр.Азия посвящён разработке технологий оптимизации авиаметеорологического обслуживания, включая проектирование и перспективное создание нескольких автоматизированных авиаметеорологических систем:
- система выпуска высокодетальных прогностических карт явлений погоды для нижнего воздушного пространства по России и ближнему зарубежью;
- система верификации прогнозов TAF (выпускаемых синоптиками официальных АМСГ РФ и ближнего зарубежья) и AUTOTAF (выпускаемых сайтом Метеоцентр.Азия) - выявление ошибок, онлайн-сопоставление с фактической погодой METAR, автоматическое внесение коррективов в прогнозы при резком отклонении фактической погоды от прогноза, подсчёт оправдываемости прогнозов по элементам и в целом;
- система обработки, анализа и отображения авиаметеорологической информации для применения провайдерами метеорологической информации.


Погода в Пинске - сегодня

Время (UTC), дата Ветер
(°,м/с) 
Видим.   Явления Облачность Т
(°С)
Тd
(°С)
f(%) Тe
(°С)
Pmin
(гПа)
dP
(гПа)
Po
(мм)
O2
(г/м3)
Тmin Tmax R s Состояние
почвы
06 24.04.17 210 (ЮЗ) 10 км    10/6 600 м верхняя 
[Sc|Ci fib]
+2.7 +0 82 +2  1014.8  0.7  748  298  -1.5         
09 24.04.17 180 (Ю) 12000 м    8/6 1000 м средняя 
[Sc|Ac trans]
+6.5 +0.7 66 +5  1015  0.4  748  294           
12 24.04.17 200 (Ю) 4{11}  12000 м    6/6 1000 м 
[Sc]
+7.9 +0.4 59 +7  1014.5  -0.4  748  293           
15 24.04.17 220 (ЮЗ) 5{11}  15000 м  {ливн. осадки}  4/4 600 м 
[Sc]
+8.6 -2.7 45 +7  1014.6  0.2  748  293      0.0     
18 24.04.17 170 (Ю) 10 км  {ливн. осадки}  4/0 средняя 
[Ac trans]
+6 -2.6 54 +7  1015.4  0.5  748  295    +9.6  0.0     
21 24.04.17 150 (ЮВ) 10 км    ясно 
+3.2 -2.9 64 +3  1015.8  0.2  749  298           
00 25.04.17 150 (ЮВ) 10 км    ясно 
+3.5 -2.2 66 +4  1015.2  -0.6  748  298           
03 25.04.17 150 (ЮВ) 10 км    ясно 
+2.9 -1.3 74 +2  1014.2  -0.9  747  298           
06 25.04.17 120 (ЮВ) 10 км    10/4 600 м средняя 
[Sc|Ac trans]
+6.3 -0.8 60 +5  1013.1  -0.9  747  294  +2.6         
09 25.04.17 130 (ЮВ) 5{10}  15000 м    9/0 средняя 
[Ac und]
+11.8 +0.2 45 +11  1011.6  -1.2  746  288           
12 25.04.17 120 (ЮВ) 6-12{13}  15000 м    10/0 средняя, верхняя 
[Ac trans|Ci fib]
+16 +2.1 39 +16  1008.8  -2.5  744  283           
15 25.04.17 140 (ЮВ) 6-10{13}  10 км    10/6 600 м средняя 
[Sc|Ac trans]
+17.3 +2.3 37 +17  1007  -1.6  743  281           
18 25.04.17 200 (Ю) 6000 м  слаб. ливневой дождь  10/10 300 м кучево-дожд. 
[Cb calv]
+14.6 +6.1 57 +15  1007.5  0.3  743  283    +17.8  0.1     
21 25.04.17 120 (ЮВ) 2{11}  9000 м  в посл. час ливневой дождь  9/9 600 м 
[Sc]
+10.4 +9 91 +11  1007.6  -0.1  743  287           
00 26.04.17 тихо ()   8000 м  дымка{ливн. осадки}  9/9 600 м 
[Sc]
+9.7 +8.2 90 +10  1007.4  -0.3  743  288           
03 26.04.17 180 (Ю) 9000 м  дымка  9/9 1000 м 
[Sc]
+9.4 +7.6 89 +10  1007.4  743  288         
06 26.04.17 220 (ЮЗ) 9000 м  дымка  10/10 300 м 
[St]
+10.5 +8.5 87 +11  1008.7  1.4  744  287  +8.4       
09 26.04.17 280 (З) 10 км    10/10 300 м 
[St]
+7.5 +4.8 83 +7  1011.6  2.6  746  292           
12 26.04.17 300 (СЗ) 10 км  в посл. час ливневой дождь  10/10 600 м кучево-дожд. 
[Cb calv]
+6.2 +5.1 93 +6  1012.6  746  293           
15 26.04.17 330 (СЗ) 9000 м  слаб. ливневой дождь  10/10 300 м кучево-дожд. 
[Cb calv]
+5.8 +4.4 91 +7  1013.1  0.4  747  294      0.8     
18 26.04.17 330 (СЗ) 3900 м  слаб. ливневой дождь  10/10 300 м кучево-дожд. 
[Cb calv]
+5.3 +4.6 95 +6  1013.6  0.5  747  295    +10.5     
21 26.04.17 340 (С) 3600 м  ливневой дождь  10/10 300 м кучево-дожд. 
[Cb calv]
+4.7 +4.2 97 +4  1013.4  -0.2  747  295           
00 27.04.17 020 (С) 3800 м  слаб. ливневой дождь  10/10 300 м кучево-дожд. 
[Cb calv]
+4.7 +4 95 +4  1012.1  -1.3  746  295           
03 27.04.17 340 (С) 3500 м  слаб. ливневой дождь  10/10 300 м кучево-дожд. 
[Cb calv]
+4.6 +4.4 99 +4  1011.4  -0.8  745  295         
06 27.04.17 320 (СЗ) 3600 м  в посл. час ливневой дождь  10/10 300 м кучево-дожд. 
[Cb calv]
+4.9 +4.4 97 +4  1012.3  746  295  +4.4       
Время (UTC), дата Ветер
(°,м/с) 
Видим.   Явления Облачность Т
(°С)
Тd
(°С)
f(%) Тe
(°С)
Pmin
(гПа)
dP
(гПа)
Po
(мм)
O2
(г/м3)
Тmin Tmax R s Состояние
почвы

Для получения пояснительной информации подведите курсор к названию столбца.

ПОГОДА в Пинске - архив

Всё, что Вы хотите узнать о погоде в Пинске - удобно и подробно!

Выберите нужную дату (начиная с 1 января 2015* года) и нажмите кнопку "Найти".
Будут отображены архивные сводки погоды по пункту Пинск, начиная с указанной даты.


Отображать данные в формате CSV (для использования в таблицах Excel)


Внимание! Наш архив погоды предназначен исключительно для личного некоммерческого использования в познавательных целях. Если Вам необходимы официальные справки о состоянии погоды (для производственных, юридических, коммерческих и т.п. целей), обращайтесь в органы Росгидромета.

*Примечание: данная дата относится к архиву по метеостанциям СССР (Россия, СНГ, Балтия).
Архив по метеостанциям Зарубежной Европы и Азии (кроме Китая) хранится 10 дней, по другим регионам земного шара (Китай, Африка, Америка, Австралия, Океания) - 1 день.

Пинск - район местоположения метеостанции


Название, широта, долгота, высота метеостанции:
Пинск 52.1°ш. 26.1°д. 142 м над ур. моря [Беларусь]

Дополнительная информация

В oтличие oт бoльшинства пoгoдных сайтoв мы публикуем пoдрoбную метеoинфoрмацию в детальнoм прoфессиoнальнoм фoрмате.

Характеристики температуры и влажнoсти вoздуха измеряются на высoте 2 м в тени вдали oт зданий и деревьев.
Скoрoсть ветра измеряется на высoте 10 м (на урoвне рoста челoвека скoрoсть ветра ниже в 1.5-2 раза). Если метеoстанция нахoдится в гoрoде или в лесу, тo скoрoсть ветра занижена на 2-4 м/с пo сравнению с oткрытым местoм. Скoрoсть ветра над акватoриями крупных рек и oзёр, а также на вершинах хoлмoв на 2-5 м/с выше, чем в oбычных услoвиях.
Атмoсфернoе давление в разных тoчках местнoсти мoжет значительнo oтличаться oт давления на метеoстанции, в зависимoсти oт услoвий рельефа (при пoдъёме на 10 м давление пoнижается примернo на 1 мм рт.ст.).